• In Uzbekistan
  • List of Countries
  • For 7 days
  • Water Temperature
  • Satellite Maps
  • Weather Map
  • Weather Widgets
  • user-avatar
    Login

    Hourly Weather Kalgoorlie

    Today, 14 December, Friday

    Time Temperature Precipitation Wind Pressure Humidity
    00:00 +22°C° 0 mm 7 mps 731 mmHg 34%
    01:00 +21°C° 0 mm 7 mps 730 mmHg 38%
    02:00 +20°C° 0 mm 7 mps 730 mmHg 43%
    03:00 +18°C° 0 mm 7 mps 730 mmHg 46%
    04:00 +17°C° 0 mm 7 mps 730 mmHg 49%
    05:00 +17°C° 0 mm 7 mps 730 mmHg 52%
    06:00 +18°C° 0 mm 7 mps 730 mmHg 48%
    07:00 +20°C° 0 mm 7 mps 730 mmHg 45%
    08:00 +22°C° 0 mm 7 mps 730 mmHg 40%
    09:00 +24°C° 0 mm 7 mps 730 mmHg 35%
    10:00 +27°C° 0 mm 7 mps 729 mmHg 29%
    11:00 +29°C° 0 mm 6 mps 729 mmHg 23%
    12:00 +30°C° 0 mm 6 mps 728 mmHg 21%
    13:00 +32°C° 0 mm 6 mps 728 mmHg 18%
    14:00 +34°C° 0 mm 6 mps 727 mmHg 16%
    15:00 +34°C° 0 mm 5 mps 727 mmHg 15%
    16:00 +34°C° 0 mm 5 mps 726 mmHg 15%
    17:00 +34°C° 0 mm 5 mps 726 mmHg 15%
    18:00 +33°C° 0 mm 5 mps 726 mmHg 16%
    19:00 +32°C° 0 mm 6 mps 726 mmHg 18%
    20:00 +30°C° 0 mm 6 mps 727 mmHg 19%
    21:00 +29°C° 0 mm 6 mps 727 mmHg 20%
    22:00 +28°C° 0 mm 7 mps 727 mmHg 21%
    23:00 +27°C° 0 mm 8 mps 727 mmHg 23%

    Tomorrow, 15 December, Saturday

    Time Temperature Precipitation Wind Pressure Humidity
    00:00 +26°C° 0 mm 8 mps 726 mmHg 24%
    01:00 +24°C° 0 mm 8 mps 725 mmHg 25%
    02:00 +24°C° 0 mm 9 mps 725 mmHg 27%
    03:00 +23°C° 0 mm 8 mps 725 mmHg 29%
    04:00 +22°C° 0 mm 7 mps 725 mmHg 31%
    05:00 +22°C° 0 mm 7 mps 725 mmHg 33%
    06:00 +23°C° 0 mm 7 mps 725 mmHg 30%
    07:00 +24°C° 0 mm 7 mps 725 mmHg 28%
    08:00 +27°C° 0 mm 7 mps 725 mmHg 25%
    09:00 +29°C° 0 mm 7 mps 725 mmHg 22%
    10:00 +32°C° 0 mm 7 mps 724 mmHg 19%
    11:00 +34°C° 0 mm 7 mps 724 mmHg 16%
    12:00 +35°C° 0 mm 7 mps 723 mmHg 15%
    13:00 +36°C° 0 mm 7 mps 722 mmHg 13%
    14:00 +38°C° 0 mm 7 mps 722 mmHg 12%
    15:00 +39°C° 0 mm 7 mps 721 mmHg 12%
    16:00 +39°C° 0 mm 6 mps 720 mmHg 11%
    17:00 +39°C° 0 mm 6 mps 720 mmHg 11%
    18:00 +38°C° 0 mm 7 mps 719 mmHg 12%
    19:00 +37°C° 0 mm 8 mps 719 mmHg 13%
    20:00 +35°C° 0 mm 9 mps 718 mmHg 14%
    21:00 +34°C° 0 mm 9 mps 719 mmHg 15%
    22:00 +33°C° 0 mm 10 mps 719 mmHg 16%
    23:00 +32°C° 0 mm 10 mps 719 mmHg 17%

    Day after tomorrow, 16 December, Sunday

    Time Temperature Precipitation Wind Pressure Humidity
    00:00 +31°C° 0 mm 9 mps 719 mmHg 17%
    01:00 +29°C° 0 mm 8 mps 719 mmHg 18%
    02:00 +28°C° 0 mm 7 mps 719 mmHg 19%
    03:00 +28°C° 0 mm 7 mps 719 mmHg 20%
    04:00 +27°C° 0 mm 6 mps 719 mmHg 21%
    05:00 +26°C° 0 mm 5 mps 719 mmHg 22%
    06:00 +28°C° 0 mm 6 mps 719 mmHg 22%
    07:00 +29°C° 0 mm 6 mps 719 mmHg 22%
    08:00 +32°C° 0 mm 6 mps 720 mmHg 22%
    09:00 +33°C° 0 mm 7 mps 719 mmHg 22%
    10:00 +35°C° 0 mm 7 mps 719 mmHg 22%
    11:00 +36°C° 0 mm 7 mps 719 mmHg 23%
    12:00 +38°C° 0 mm 7 mps 718 mmHg 19%
    13:00 +38°C° 0 mm 7 mps 718 mmHg 16%
    14:00 +39°C° 0 mm 8 mps 717 mmHg 13%
    15:00 +38°C° 0 mm 7 mps 717 mmHg 13%
    16:00 +38°C° 0 mm 7 mps 717 mmHg 13%
    17:00 +38°C° 0 mm 7 mps 716 mmHg 13%
    18:00 +35°C° 0 mm 7 mps 717 mmHg 15%
    19:00 +34°C° 0 mm 6 mps 717 mmHg 17%
    20:00 +33°C° 0 mm 6 mps 718 mmHg 19%
    21:00 +32°C° 0 mm 6 mps 718 mmHg 23%
    22:00 +30°C° 0 mm 7 mps 718 mmHg 27%
    23:00 +29°C° 0 mm 8 mps 718 mmHg 30%

    17 December, Monday

    Time Temperature Precipitation Wind Pressure Humidity
    00:00 +28°C° 0 mm 8 mps 718 mmHg 36%
    01:00 +27°C° 0 mm 7 mps 718 mmHg 42%
    02:00 +24°C° 0 mm 7 mps 718 mmHg 47%
    03:00 +23°C° 0 mm 6 mps 718 mmHg 53%
    04:00 +22°C° 0 mm 6 mps 718 mmHg 59%
    05:00 +21°C° 0 mm 5 mps 719 mmHg 65%
    06:00 +22°C° 0.2 mm 5 mps 719 mmHg 63%
    07:00 +22°C° 0.2 mm 5 mps 719 mmHg 60%
    08:00 +23°C° 0.2 mm 5 mps 720 mmHg 58%
    09:00 +24°C° 0.2 mm 6 mps 720 mmHg 56%
    10:00 +24°C° 0.2 mm 7 mps 720 mmHg 53%
    11:00 +26°C° 0.2 mm 7 mps 720 mmHg 50%
    12:00 +26°C° 0.2 mm 8 mps 721 mmHg 50%
    13:00 +26°C° 0.2 mm 9 mps 721 mmHg 49%
    14:00 +26°C° 0.2 mm 10 mps 721 mmHg 49%
    15:00 +24°C° 0 mm 10 mps 721 mmHg 50%
    16:00 +23°C° 0 mm 10 mps 722 mmHg 51%
    17:00 +23°C° 0 mm 9 mps 722 mmHg 53%
    18:00 +22°C° 0 mm 9 mps 723 mmHg 55%
    19:00 +21°C° 0 mm 8 mps 724 mmHg 58%
    20:00 +20°C° 0 mm 8 mps 724 mmHg 61%
    21:00 +18°C° 0 mm 8 mps 725 mmHg 63%
    22:00 +18°C° 0 mm 7 mps 725 mmHg 64%
    23:00 +17°C° 0 mm 7 mps 725 mmHg 66%

    18 December, Tuesday

    Time Temperature Precipitation Wind Pressure Humidity
    00:00 +17°C° 0 mm 7 mps 725 mmHg 68%
    01:00 +16°C° 0 mm 7 mps 725 mmHg 71%
    02:00 +16°C° 0 mm 7 mps 725 mmHg 73%
    03:00 +16°C° 0 mm 7 mps 725 mmHg 71%
    04:00 +16°C° 0 mm 7 mps 726 mmHg 70%
    05:00 +16°C° 0 mm 7 mps 726 mmHg 68%
    06:00 +17°C° 0 mm 6 mps 726 mmHg 65%
    07:00 +17°C° 0 mm 6 mps 727 mmHg 62%
    08:00 +19°C° 0 mm 6 mps 728 mmHg 59%
    09:00 +21°C° 0 mm 6 mps 728 mmHg 53%
    10:00 +22°C° 0 mm 7 mps 728 mmHg 47%
    11:00 +24°C° 0 mm 7 mps 728 mmHg 41%
    12:00 +26°C° 0 mm 7 mps 728 mmHg 38%
    13:00 +27°C° 0 mm 7 mps 727 mmHg 35%
    14:00 +28°C° 0 mm 7 mps 727 mmHg 32%
    15:00 +28°C° 0 mm 7 mps 727 mmHg 32%
    16:00 +28°C° 0 mm 7 mps 728 mmHg 32%
    17:00 +28°C° 0 mm 7 mps 728 mmHg 32%
    18:00 +27°C° 0 mm 7 mps 728 mmHg 35%
    19:00 +26°C° 0 mm 7 mps 729 mmHg 39%
    20:00 +23°C° 0 mm 7 mps 730 mmHg 42%
    21:00 +22°C° 0 mm 7 mps 730 mmHg 47%
    22:00 +21°C° 0 mm 7 mps 730 mmHg 51%
    23:00 +18°C° 0 mm 7 mps 731 mmHg 56%

    19 December, Wednesday

    Time Temperature Precipitation Wind Pressure Humidity
    00:00 +17°C° 0 mm 7 mps 730 mmHg 60%
    01:00 +17°C° 0 mm 6 mps 730 mmHg 64%
    02:00 +16°C° 0 mm 6 mps 730 mmHg 68%
    03:00 +15°C° 0 mm 6 mps 730 mmHg 70%
    04:00 +15°C° 0 mm 6 mps 731 mmHg 73%
    05:00 +14°C° 0 mm 6 mps 731 mmHg 76%
    06:00 +15°C° 0 mm 6 mps 731 mmHg 70%
    07:00 +16°C° 0 mm 6 mps 732 mmHg 65%
    08:00 +17°C° 0 mm 5 mps 732 mmHg 59%
    09:00 +20°C° 0 mm 5 mps 732 mmHg 52%
    10:00 +22°C° 0 mm 5 mps 732 mmHg 44%
    11:00 +25°C° 0 mm 4 mps 732 mmHg 36%
    12:00 +27°C° 0 mm 4 mps 731 mmHg 32%
    13:00 +28°C° 0 mm 4 mps 731 mmHg 28%
    14:00 +29°C° 0 mm 4 mps 730 mmHg 24%
    15:00 +30°C° 0 mm 4 mps 730 mmHg 23%
    16:00 +30°C° 0 mm 4 mps 730 mmHg 22%
    17:00 +30°C° 0 mm 4 mps 730 mmHg 21%
    18:00 +30°C° 0 mm 4 mps 731 mmHg 23%
    19:00 +29°C° 0 mm 4 mps 731 mmHg 25%
    20:00 +28°C° 0 mm 4 mps 732 mmHg 27%
    21:00 +27°C° 0 mm 6 mps 732 mmHg 33%
    22:00 +24°C° 0 mm 7 mps 732 mmHg 38%
    23:00 +23°C° 0 mm 9 mps 732 mmHg 44%
    Show more